Regional Weather Roundup
Issued by NWS

Home | Current Version | Previous Version | Graphics & Text | Print | Product List | Glossary On
Versions: 1 2 3 4 5 6 7 8 9 10 11 12 13 14 15 16 17 18 19 20 21 22 23 24 25 26 27 28 29 30 31 32 33 34 35 36 37 38 39 40 41 42 43 44 45 46 47 48 49 50
000
ASUS43 KBIS 220702
RWRND

NORTH DAKOTA REGIONAL WEATHER ROUNDUP
NATIONAL WEATHER SERVICE BISMARCK ND
100 AM CST WED FEB 22 2017

NOTE: "FAIR" INDICATES FEW OR NO CLOUDS BELOW 12,000 FEET WITH NO
SIGNIFICANT WEATHER AND/OR OBSTRUCTIONS TO VISIBILITY.


NDZ001>003-009>011-017-220800-
NORTHWEST NORTH DAKOTA

CITY           SKY/WX    TMP DP  RH WIND       PRES   REMARKS
WILLISTON      LGT SNOW  33  32  96 N13       29.71R VSB 3/4
MINOT          CLOUDY    34  32  92 NW10      29.68R FOG
MINOT AFB      LGT RAIN  32  32 100 N9        29.68F FOG
$$

NDZ018>021-031>035-040>046-220800-
SOUTHWEST NORTH DAKOTA

CITY           SKY/WX    TMP DP  RH WIND       PRES   REMARKS
BISMARCK       FAIR      32  31  96 E3        29.62F
DICKINSON      FAIR      33  31  92 CALM      29.64R
GARRISON         N/A     34  32  92 NE7       29.65S
HETTINGER ARPT CLOUDY    37  35  92 SW3       29.67R
$$

NDZ004>008-012>016-024-026-027-054-220800-
NORTHEAST NORTH DAKOTA

CITY           SKY/WX    TMP DP  RH WIND       PRES   REMARKS
GRAND FORKS    FOG       33  29  85 NW7       29.68R VSB 3/4
GRND FRKS AFB  MIX PCPN  32  32 100 N6        29.69R VSB 1/2
DEVILS LAKE    CLOUDY    33  33 100 NW5       29.67S
$$

NDZ022-023-025-028>030-036>039-047>053-220800-
SOUTHEAST NORTH DAKOTA

CITY           SKY/WX    TMP DP  RH WIND       PRES   REMARKS
FARGO          CLOUDY    33  33 100 NW3       29.64S
JAMESTOWN      FAIR      32  30  92 CALM      29.63F
$$





USA.gov is the U.S. government's official web portal to all federal, state and local government web resources and services.